This is the latest recevied weather packets stored in our database for station/object KC9DNQ-3. If no packets are shown the sender has not sent any weather packets the latest 10 day(s).
| Time | Temp. | Humidity | Pressure | Rain* | Wind** | Luminosity | Snow |
|---|---|---|---|---|---|---|---|
| 1777772413 | 7.78° C | 69% | 1015.8 hPa | 0 mm | - | 0 W/m² | - |
| 1777772111 | 7.78° C | 68% | 1015.8 hPa | 0 mm | - | 0 W/m² | - |
| 1777771811 | 8.33° C | 66% | 1015.8 hPa | 0 mm | - | 0 W/m² | - |
| 1777771511 | 8.33° C | 66% | 1015.7 hPa | 0 mm | - | 0 W/m² | - |
| 1777771211 | 8.33° C | 64% | 1015.7 hPa | 0 mm | - | 0 W/m² | - |
| 1777770911 | 8.89° C | 63% | 1015.7 hPa | 0 mm | - | 0 W/m² | - |
| 1777770612 | 8.89° C | 61% | 1015.7 hPa | 0 mm | - | 0 W/m² | - |
| 1777770312 | 9.44° C | 60% | 1015.7 hPa | 0 mm | - | 0 W/m² | - |
| 1777770012 | 10° C | 54% | 1015.7 hPa | 0 mm | - | 0 W/m² | - |
| 1777769711 | 10° C | 53% | 1015.7 hPa | 0 mm | - | 0 W/m² | - |
| 1777769411 | 10.56° C | 55% | 1015.7 hPa | 0 mm | - | 5 W/m² | - |
| 1777769112 | 11.11° C | 55% | 1015.7 hPa | 0 mm | - | 7 W/m² | - |
| 1777768812 | 11.11° C | 58% | 1015.7 hPa | 0 mm | - | 11 W/m² | - |
| 1777768511 | 11.67° C | 57% | 1015.7 hPa | 0 mm | - | 19 W/m² | - |
| 1777768212 | 12.22° C | 55% | 1015.7 hPa | 0 mm | - | 23 W/m² | - |
| 1777767912 | 12.22° C | 54% | 1015.7 hPa | 0 mm | - | 25 W/m² | - |
| 1777767611 | 12.78° C | 50% | 1015.7 hPa | 0 mm | - | 21 W/m² | - |
| 1777767312 | 12.78° C | 43% | 1015.7 hPa | 0 mm | - | 25 W/m² | - |
| 1777767012 | 13.33° C | 44% | 1015.7 hPa | 0 mm | - | 40 W/m² | - |
| 1777766711 | 13.33° C | 41% | 1015.8 hPa | 0 mm | - | 56 W/m² | - |
| 1777766411 | 13.33° C | 40% | 1015.8 hPa | 0 mm | - | 79 W/m² | - |
| 1777766111 | 13.89° C | 39% | 1015.8 hPa | 0 mm | - | 134 W/m² | - |
| 1777765811 | 13.89° C | 37% | 1015.8 hPa | 0 mm | - | 116 W/m² | - |
| 1777765511 | 14.44° C | 38% | 1015.8 hPa | 0 mm | - | 186 W/m² | - |
| 1777765211 | 14.44° C | 37% | 1015.9 hPa | 0 mm | - | 58 W/m² | - |
* Rain latest hour (hover to see other rain measurements)
** Current wind speed in m/s (hover to see current wind gust speed)